BRITE-AUSTRIA

Last updated on Tue Jul 01 2025 00:03:31 GMT+0000 (Coordinated Universal Time)

1 39091U 13009F 25181.51010038 .00000102 00000+0 49457-4 0 9995 2 39091 98.3887 4.9072 0009688 204.0078 156.0658 14.36318826646561
UTC large
Height (km)
Speed (km/s)
/
Latitude / Longitude
Inclination (degrees)
Orbital Period (minutes)
Azimuth
Elevation
Range (km)
Doppler Factor

Next 0 passes for location: London (51.5072 / 0.1276)

Sorry there are no passes over London.